DW8241 Weather Reports


time (UTC)temp
F
wind
direction
speed
knots
gust
knots
rain 1hr
in
rain 24hr
in
rain mn
in
humidity
%
barometer
mb
20260509124503 39 321 1.7 6.1 0.00 0.02 0.00 76 1011.4
20260509123131 38 333 2.6 5.2 0.00 0.02 0.00 78 1011.3
20260509121613 36 318 0.9 3.5 0.00 0.02 0.00 83 1011.0
20260509120112 34 300 0.9 3.5 0.00 0.02 0.00 84 1010.8
20260509114558 33 309 1.7 3.5 0.00 0.02 0.00 84 1010.5
20260509113050 34 309 1.7 3.5 0.00 0.02 0.00 81 1010.4
20260509111600 34 344 0.9 2.6 0.00 0.02 0.00 82 1010.0
20260509110044 34 299 0.9 3.5 0.00 0.02 0.00 82 1009.8
20260509104545 35 331 1.7 3.5 0.00 0.02 0.00 80 1009.6
20260509103041 36 316 1.7 4.3 0.00 0.02 0.00 82 1009.3
20260509101553 38 309 0.9 2.6 0.00 0.02 0.00 82 1009.1
20260509100032 39 342 1.7 4.3 0.00 0.02 0.00 78 1008.9
20260509094536 39 8 0.9 4.3 0.00 0.02 0.00 76 1008.6
20260509093027 39 36 0.0 3.5 0.00 0.02 0.00 79 1008.4
20260509091535 39 334 0.9 3.5 0.00 0.02 0.00 78 1008.1
20260509090024 40 37 2.6 6.1 0.00 0.02 0.00 78 1007.8
20260509084522 40 8 1.7 6.1 0.00 0.02 0.00 79 1007.6
20260509083016 40 2 1.7 6.1 0.00 0.02 0.00 79 1007.2
20260509081523 40 39 1.7 5.2 0.00 0.02 0.00 80 1006.9
20260509080012 39 18 1.7 6.1 0.00 0.02 0.00 82 1006.7
20260509074508 39 307 1.7 4.3 0.00 0.02 0.00 83 1006.4
20260509073006 39 330 0.9 4.3 0.00 0.02 0.00 86 1006.3
20260509071505 38 314 2.6 7.0 0.00 0.02 0.00 93 1006.3
20260509070004 38 321 1.7 4.3 0.00 0.02 0.00 93 1006.1
20260509064619 38 300 1.7 3.5 0.00 0.02 0.00 92 1005.9
20260509063055 39 330 2.6 4.3 0.00 0.02 0.00 92 1006.0
20260509061551 40 309 1.7 2.6 0.00 0.02 0.00 91 1005.7
20260509060047 41 30 0.0 0.9 0.00 0.02 0.00 90 1005.6
20260509054556 42 30 0.0 1.7 0.00 0.02 0.00 88 1005.4
20260509053040 44 34 0.0 0.0 0.00 0.02 0.00 87 1005.0
20260509051538 45 34 0.0 0.0 0.00 0.02 0.00 85 1004.9
20260509050038 45 34 0.0 2.6 0.00 0.02 0.00 85 1005.0
20260509044533 46 37 1.7 5.2 0.00 0.02 0.02 86 1005.2
20260509043034 46 28 3.5 7.0 0.00 0.02 0.02 83 1005.2
20260509041558 46 48 0.0 0.9 0.00 0.02 0.02 85 1005.1
20260509040032 47 48 1.7 2.6 0.02 0.02 0.02 84 1004.9
20260509034529 47 49 0.0 3.5 0.02 0.02 0.02 81 1004.7
20260509033029 47 58 0.0 4.3 0.02 0.02 0.02 80 1004.9
20260509031534 48 44 1.7 8.7 0.02 0.02 0.02 79 1005.0
20260509030030 50 41 3.5 11.3 0.00 0.00 0.00 73 1005.0
20260509024527 54 17 5.2 11.3 0.00 0.00 0.00 64 1004.9
20260509023029 56 336 6.1 17.4 0.00 0.00 0.00 55 1004.4
20260509021533 57 317 3.5 10.4 0.00 0.00 0.00 45 1003.8
20260509020124 57 326 14.8 23.5 0.00 0.00 0.00 54 1003.0
20260509014526 60 294 8.7 19.1 0.00 0.00 0.00 47 1002.4
20260509013036 60 323 1.7 4.3 0.00 0.00 0.00 46 1001.5
20260509011523 61 321 1.7 4.3 0.00 0.00 0.00 43 1001.3
20260509010023 62 324 2.6 7.0 0.00 0.00 0.00 42 1001.3
20260509004522 63 333 3.5 8.7 0.00 0.00 0.00 41 1001.5
20260509003020 64 16 5.2 15.6 0.00 0.00 0.00 39 1001.6
20260509001518 64 355 5.2 12.2 0.00 0.00 0.00 39 1001.7
20260509000016 64 358 7.8 15.6 0.00 0.00 0.00 38 1001.9
20260508234514 65 317 7.0 15.6 0.00 0.00 0.00 37 1002.1
20260508233016 65 1 7.8 14.8 0.00 0.00 0.00 38 1002.2
20260508231510 64 295 7.8 19.1 0.00 0.00 0.00 39 1002.4
20260508230010 64 294 10.4 20.0 0.00 0.00 0.00 38 1002.5
20260508224514 66 324 10.4 17.4 0.00 0.00 0.00 39 1002.6
20260508223008 66 342 7.8 15.6 0.00 0.00 0.00 38 1002.9
20260508221504 64 360 8.7 17.4 0.00 0.00 0.00 39 1003.2
20260508220002 64 326 7.0 13.9 0.00 0.00 0.00 38 1003.3
20260508214602 63 316 4.3 10.4 0.00 0.00 0.00 39 1003.5
20260508213100 65 301 9.6 15.6 0.00 0.00 0.00 37 1003.6
20260508211558 64 286 7.0 18.2 0.00 0.00 0.00 39 1003.8
20260508210056 64 349 7.0 15.6 0.00 0.00 0.00 37 1003.9
20260508204557 63 359 7.0 12.2 0.00 0.00 0.00 37 1004.2
20260508203051 62 356 8.7 13.9 0.00 0.00 0.00 38 1004.4
20260508201549 62 302 6.1 15.6 0.00 0.00 0.00 40 1004.4
20260508200105 61 332 7.8 16.5 0.00 0.00 0.00 37 1004.5
20260508194545 61 331 9.6 14.8 0.00 0.00 0.00 37 1004.9
20260508193107 61 41 9.6 16.5 0.00 0.00 0.00 36 1004.8
20260508191545 60 360 7.8 18.2 0.00 0.00 0.00 37 1004.9
20260508190041 61 333 11.3 19.1 0.00 0.00 0.00 37 1005.0
20260508184541 60 340 10.4 16.5 0.00 0.00 0.00 37 1005.1
20260508183054 60 27 9.6 17.4 0.00 0.00 0.00 37 1005.2
20260508181552 60 342 8.7 18.2 0.00 0.00 0.00 38 1005.1
20260508180041 59 328 9.6 21.7 0.00 0.00 0.00 39 1005.2
20260508174539 60 315 8.7 18.2 0.00 0.00 0.00 39 1005.4
20260508173038 60 330 8.7 17.4 0.00 0.00 0.00 41 1005.1
20260508171537 60 319 10.4 21.7 0.00 0.00 0.00 41 1004.9
20260508170036 61 318 7.8 20.9 0.00 0.00 0.00 41 1004.9
20260508164538 60 345 8.7 20.9 0.00 0.00 0.00 39 1004.9
20260508163034 60 332 8.7 19.1 0.00 0.00 0.00 44 1004.8
20260508161531 59 334 9.6 19.1 0.00 0.00 0.00 42 1004.9
20260508160029 59 325 10.4 17.4 0.00 0.00 0.00 41 1005.0
20260508154543 59 308 10.4 20.0 0.00 0.00 0.00 42 1005.0
20260508153027 57 313 11.3 16.5 0.00 0.00 0.00 37 1004.9
20260508151525 58 309 10.4 16.5 0.00 0.00 0.00 35 1004.9
20260508150020 57 273 7.8 13.0 0.00 0.00 0.00 39 1004.9
20260508144517 56 271 7.0 12.2 0.00 0.00 0.00 43 1005.0
20260508143016 54 286 8.7 11.3 0.00 0.00 0.00 44 1005.2
20260508141510 52 269 6.1 12.2 0.00 0.00 0.00 46 1005.3
20260508140006 51 250 0.0 6.1 0.00 0.00 0.00 52 1005.6
20260508134504 49 250 3.5 7.0 0.00 0.00 0.00 52 1005.6
20260508133101 48 233 0.0 0.0 0.00 0.00 0.00 57 1005.7
20260508131552 46 239 0.0 0.0 0.00 0.00 0.00 61 1005.8
20260508130048 44 240 0.0 0.0 0.00 0.00 0.00 65 1005.9